Tracking 19908 objects as of 19-Oct-2019
HD Live streaming from Space Station
objects crossing your sky now

OV1-5 DEB

Track OV1-5 DEB now!
10-day predictions


NORAD ID: 3611
Int'l Code: 1966-025E
Perigee: 586.5 km
Apogee: 607.3 km
Inclination: 144.6 °
Period: 96.5 minutes
Semi major axis: 6967 km
RCS: 0.0246 m2 (small)
Launch date: March 30, 1966
Source: United States (US)
Launch site: AIR FORCE WESTERN TEST RANGE (AFWTR)

Note: This is SATELLITE DEBRIS
aabbcc
Your satellite tracking list
Your tracking list is empty




NASA's NSSDC Master Catalog

Two Line Element Set (TLE):
1  3611U 66025E   19291.46902849  .00001996  00000-0  14530-3 0  9995
2  3611 144.5571 137.9232 0014901 223.9684 135.9842 14.92625511771212
Source of the keplerian elements: AFSPC